Simultaneous Nadir Overpasses (SNOs) Predictions

Prediction of SNOs between METOP-B and TERRA Satellite Orbit:

Table of predicted SNOs for the next 14.0 days since TLE Epoch: 4/9/2022
Index Date (METOP-B) Time (METOP-B) Lat,Lon (METOP-B) SZA (METOP-B ) Date (TERRA) Time (TERRA) Lat,Lon (TERRA) SZA (TERRA ) Distance(km) Time Diff (sec)
1 04/10/2022 14:27:11 -81.19,-175.09 104.68 04/10/2022 14:27:40 -81.19,-175.01 104.66 1.41 29
2 04/10/2022 15:17:51 81.20, -7.45 75.35 04/10/2022 15:17:06 81.20, -7.27 75.35 3.03 45
3 04/13/2022 10:01:33 -81.19,-108.53 105.67 04/13/2022 10:01:53 -81.19,-108.55 105.66 0.46 20
4 04/13/2022 10:52:13 81.20, 59.11 74.36 04/13/2022 10:51:19 81.20, 59.16 74.34 0.94 54
5 04/16/2022 05:35:55 -81.18, -42.39 106.69 04/16/2022 05:36:05 -81.19, -42.22 106.67 2.83 10
6 04/16/2022 06:26:33 81.21, 126.00 73.44 04/16/2022 06:25:30 81.21, 125.83 73.39 2.97 63
7 04/19/2022 00:19:41 81.13,-145.09 72.14 04/19/2022 00:20:55 81.07,-145.10 72.13 6.11 74
8 04/19/2022 01:10:16 -81.20, 24.46 107.60 04/19/2022 01:10:17 -81.20, 24.34 107.61 2.04 1
9 04/19/2022 02:00:56 81.20,-167.93 72.43 04/19/2022 01:59:43 81.20,-168.00 72.38 1.64 73
10 04/21/2022 19:53:59 81.18, -77.16 71.39 04/21/2022 19:55:03 81.17, -77.24 71.40 1.44 64



Historial Predications of SNOs between METOP-B and TERRA
